BEZ313 TTCP-TJSJ

Flight info

Callsign BEZ313
Flight time N/A
Altitude 12000
Route GND ANADA L467 GESSO RTE7 SJU
Aircraft C208/L-VGD/C

Departure

Time 2026-04-26 21:27
Airport A.N.R. Robinson International Airport (TTCP)

Arrival

Time N/A
Airport Luis Munoz Marin International Airport (TJSJ)
Time Latitude Longitude Altitude Speed Heading
2026-04-26 21:23 11.15124 -60.84186 39 ft 0 kts 92°
2026-04-26 21:24 11.15123 -60.84169 39 ft 6 kts 92°
2026-04-26 21:24 11.15109 -60.84132 39 ft 0 kts 216°
2026-04-26 21:26 11.15102 -60.84137 39 ft 4 kts 215°
2026-04-26 21:26 11.15050 -60.84161 39 ft 13 kts 144°
2026-04-26 21:26 11.15026 -60.83990 40 ft 49 kts 92°
2026-04-26 21:26 11.14991 -60.83495 100 ft 83 kts 91°
2026-04-26 21:27 11.14969 -60.82893 318 ft 87 kts 92°
2026-04-26 21:27 11.14678 -60.82334 488 ft 100 kts 143°
2026-04-26 21:27 11.13972 -60.82312 706 ft 111 kts 195°
2026-04-26 21:27 11.13347 -60.82809 932 ft 118 kts 232°
2026-04-26 21:28 11.13093 -60.83599 1163 ft 121 kts 269°
2026-04-26 21:28 11.13351 -60.84393 1401 ft 118 kts 308°
2026-04-26 21:28 11.13848 -60.85052 1610 ft 119 kts 313°
2026-04-26 21:28 11.14404 -60.85693 1802 ft 121 kts 322°
2026-04-26 21:29 11.15033 -60.86272 1990 ft 123 kts 323°
2026-04-26 21:29 11.15690 -60.86850 2182 ft 126 kts 324°
2026-04-26 21:29 11.16366 -60.87441 2376 ft 130 kts 324°
2026-04-26 21:29 11.17069 -60.88050 2567 ft 133 kts 324°
2026-04-26 21:30 11.17784 -60.88668 2760 ft 136 kts 324°
2026-04-26 21:30 11.18508 -60.89293 2951 ft 138 kts 324°
2026-04-26 21:30 11.19259 -60.89935 3142 ft 140 kts 324°
2026-04-26 21:30 11.20014 -60.90571 3335 ft 141 kts 324°
2026-04-26 21:31 11.20782 -60.91213 3524 ft 143 kts 324°
2026-04-26 21:31 11.21551 -60.91850 3712 ft 143 kts 324°
2026-04-26 21:31 11.22327 -60.92490 3904 ft 144 kts 324°
2026-04-26 21:31 11.23108 -60.93137 4103 ft 145 kts 324°
2026-04-26 21:32 11.23912 -60.93775 4297 ft 145 kts 330°
2026-04-26 21:32 11.24723 -60.94373 4487 ft 146 kts 324°
2026-04-26 21:32 11.25494 -60.95063 4682 ft 146 kts 319°
2026-04-26 21:32 11.26220 -60.95796 4870 ft 147 kts 316°
2026-04-26 21:33 11.26923 -60.96547 5054 ft 147 kts 315°
2026-04-26 21:33 11.27619 -60.97309 5244 ft 147 kts 314°
2026-04-26 21:33 11.28312 -60.98076 5436 ft 148 kts 314°
2026-04-26 21:33 11.29013 -60.98857 5636 ft 148 kts 314°
2026-04-26 21:34 11.29713 -60.99636 5831 ft 149 kts 314°
2026-04-26 21:34 11.30412 -61.00415 6026 ft 149 kts 314°
2026-04-26 21:34 11.31110 -61.01196 6219 ft 149 kts 314°
2026-04-26 21:34 11.31816 -61.01984 6418 ft 149 kts 314°
2026-04-26 21:35 11.32512 -61.02760 6608 ft 150 kts 313°
2026-04-26 21:35 11.33223 -61.03553 6802 ft 150 kts 314°
2026-04-26 21:35 11.33921 -61.04333 6993 ft 150 kts 314°
2026-04-26 21:35 11.34625 -61.05118 7183 ft 150 kts 314°
2026-04-26 21:36 11.35334 -61.05908 7375 ft 150 kts 314°
2026-04-26 21:36 11.35804 -61.06433 7505 ft 149 kts 314°
2026-04-26 21:36 11.36744 -61.07481 7756 ft 150 kts 314°
2026-04-26 21:36 11.37451 -61.08271 7946 ft 150 kts 314°
2026-04-26 21:37 11.38154 -61.09055 8136 ft 150 kts 314°
2026-04-26 21:37 11.38858 -61.09843 8327 ft 150 kts 314°
2026-04-26 21:37 11.39564 -61.10628 8519 ft 150 kts 314°
2026-04-26 21:37 11.40269 -61.11417 8711 ft 149 kts 314°
2026-04-26 21:38 11.40967 -61.12196 8899 ft 150 kts 314°
2026-04-26 21:38 11.41673 -61.12985 9091 ft 150 kts 314°
2026-04-26 21:38 11.42380 -61.13773 9284 ft 150 kts 314°
2026-04-26 21:38 11.43085 -61.14561 9474 ft 150 kts 314°
2026-04-26 21:39 11.43784 -61.15342 9662 ft 150 kts 314°
2026-04-26 21:39 11.44489 -61.16129 9855 ft 151 kts 314°
2026-04-26 21:39 11.45198 -61.16922 10047 ft 151 kts 314°
2026-04-26 21:39 11.45911 -61.17719 10239 ft 151 kts 314°
2026-04-26 21:40 11.46613 -61.18504 10426 ft 151 kts 314°
2026-04-26 21:40 11.47331 -61.19302 10609 ft 151 kts 314°
2026-04-26 21:40 11.48049 -61.20102 10753 ft 154 kts 314°
2026-04-26 21:40 11.48779 -61.20919 10902 ft 158 kts 314°
2026-04-26 21:41 11.49528 -61.21755 11050 ft 161 kts 314°
2026-04-26 21:41 11.50287 -61.22600 11184 ft 165 kts 314°
2026-04-26 21:41 11.51069 -61.23472 11311 ft 168 kts 313°
2026-04-26 21:41 11.51870 -61.24368 11434 ft 170 kts 313°
2026-04-26 21:42 11.52669 -61.25259 11555 ft 172 kts 313°
2026-04-26 21:42 11.53481 -61.26168 11677 ft 174 kts 313°
2026-04-26 21:42 11.54306 -61.27090 11799 ft 175 kts 313°
2026-04-26 21:42 11.55131 -61.28012 11921 ft 175 kts 313°
2026-04-26 21:43 11.55950 -61.28928 11996 ft 178 kts 313°
2026-04-26 21:43 11.56808 -61.29888 12004 ft 185 kts 313°
2026-04-26 21:43 11.57682 -61.30867 12007 ft 189 kts 313°
2026-04-26 21:43 11.58583 -61.31873 12007 ft 192 kts 313°
2026-04-26 21:44 11.59487 -61.32886 12006 ft 192 kts 313°
2026-04-26 21:44 11.60384 -61.33888 12006 ft 191 kts 313°
2026-04-26 21:44 11.61271 -61.34881 12005 ft 191 kts 313°
2026-04-26 21:44 11.62175 -61.35893 12008 ft 191 kts 313°
2026-04-26 21:45 11.63069 -61.36894 12009 ft 190 kts 313°
2026-04-26 21:45 11.63965 -61.37895 12007 ft 190 kts 313°
2026-04-26 21:45 11.64852 -61.38888 12008 ft 190 kts 313°
2026-04-26 21:45 11.65737 -61.39879 12007 ft 190 kts 313°
2026-04-26 21:46 11.66629 -61.40877 12008 ft 190 kts 313°
2026-04-26 21:46 11.67528 -61.41885 12008 ft 190 kts 313°
2026-04-26 21:46 11.68421 -61.42885 12007 ft 190 kts 313°
2026-04-26 21:46 11.69309 -61.43882 12008 ft 190 kts 313°
2026-04-26 21:47 11.70197 -61.44876 12009 ft 190 kts 313°
2026-04-26 21:47 11.71088 -61.45874 12008 ft 190 kts 313°
2026-04-26 21:47 11.71982 -61.46875 12010 ft 190 kts 313°
2026-04-26 21:47 11.72879 -61.47881 12008 ft 190 kts 313°
2026-04-26 21:48 11.73767 -61.48876 12009 ft 190 kts 313°
2026-04-26 21:48 11.74661 -61.49876 12010 ft 190 kts 313°
2026-04-26 21:48 11.75550 -61.50873 12010 ft 190 kts 313°
2026-04-26 21:48 11.76440 -61.51870 12010 ft 190 kts 313°
2026-04-26 21:49 11.77331 -61.52867 12011 ft 190 kts 313°
2026-04-26 21:49 11.78224 -61.53871 12008 ft 190 kts 313°
2026-04-26 21:49 11.79117 -61.54873 12008 ft 190 kts 313°
2026-04-26 21:49 11.80004 -61.55868 12007 ft 190 kts 313°
2026-04-26 21:50 11.80887 -61.56858 12012 ft 190 kts 313°
2026-04-26 21:50 11.81486 -61.57531 12012 ft 190 kts 313°
2026-04-26 21:50 11.82674 -61.58865 12011 ft 190 kts 313°
2026-04-26 21:50 11.83564 -61.59862 12007 ft 190 kts 313°
2026-04-26 21:51 11.84450 -61.60856 12011 ft 189 kts 313°
2026-04-26 21:51 11.85340 -61.61855 12010 ft 189 kts 313°
2026-04-26 21:51 11.86229 -61.62853 12007 ft 189 kts 313°
2026-04-26 21:51 11.87115 -61.63847 12010 ft 189 kts 313°
2026-04-26 21:52 11.88003 -61.64842 12016 ft 189 kts 313°
2026-04-26 21:52 11.88891 -61.65840 12009 ft 189 kts 313°
2026-04-26 21:52 11.89784 -61.66843 12011 ft 190 kts 313°
2026-04-26 21:52 11.90674 -61.67842 12016 ft 190 kts 313°
2026-04-26 21:53 11.91559 -61.68835 12012 ft 191 kts 312°
2026-04-26 21:53 11.92452 -61.69838 12010 ft 190 kts 313°
2026-04-26 21:53 11.93349 -61.70846 12010 ft 190 kts 313°
2026-04-26 21:53 11.94234 -61.71841 12010 ft 190 kts 312°
2026-04-26 21:54 11.95132 -61.72849 12010 ft 190 kts 312°
2026-04-26 21:54 11.96024 -61.73852 12010 ft 190 kts 312°
2026-04-26 21:54 11.96918 -61.74857 12011 ft 190 kts 312°
2026-04-26 21:54 11.97807 -61.75856 12010 ft 189 kts 313°
2026-04-26 21:55 11.98692 -61.76851 12011 ft 189 kts 313°
2026-04-26 21:55 11.99580 -61.77850 12009 ft 189 kts 313°
2026-04-26 21:55 12.00521 -61.78795 12008 ft 189 kts 322°
2026-04-26 21:55 12.01560 -61.79615 12009 ft 189 kts 324°
2026-04-26 21:56 12.02616 -61.80429 12012 ft 189 kts 324°
2026-04-26 21:56 12.03668 -61.81237 12014 ft 189 kts 324°
2026-04-26 21:56 12.04721 -61.82050 12014 ft 189 kts 324°
2026-04-26 21:56 12.05771 -61.82863 12013 ft 189 kts 324°
2026-04-26 21:57 12.06820 -61.83674 12012 ft 189 kts 324°
2026-04-26 21:57 12.07865 -61.84484 12013 ft 189 kts 324°
2026-04-26 21:57 12.08926 -61.85307 12013 ft 189 kts 324°
2026-04-26 21:57 12.09971 -61.86118 12014 ft 189 kts 324°
2026-04-26 21:58 12.11021 -61.86933 12011 ft 189 kts 323°
2026-04-26 21:58 12.12081 -61.87756 12012 ft 189 kts 323°
2026-04-26 21:58 12.13120 -61.88562 12014 ft 189 kts 324°
2026-04-26 21:58 12.14172 -61.89380 12014 ft 189 kts 324°
2026-04-26 21:59 12.15216 -61.90190 12012 ft 188 kts 324°
2026-04-26 21:59 12.16272 -61.91009 12013 ft 188 kts 324°
2026-04-26 21:59 12.17307 -61.91812 12015 ft 188 kts 324°
2026-04-26 21:59 12.18356 -61.92627 12016 ft 188 kts 324°
2026-04-26 22:00 12.19406 -61.93441 12016 ft 188 kts 323°
2026-04-26 22:00 12.20453 -61.94256 12016 ft 188 kts 324°
2026-04-26 22:00 12.21489 -61.95061 12016 ft 188 kts 324°
2026-04-26 22:00 12.22542 -61.95878 12016 ft 188 kts 324°
2026-04-26 22:01 12.23593 -61.96694 12016 ft 188 kts 324°
2026-04-26 22:01 12.24631 -61.97503 12016 ft 189 kts 324°
2026-04-26 22:01 12.25678 -61.98316 12016 ft 189 kts 324°
2026-04-26 22:01 12.26731 -61.99133 12017 ft 189 kts 324°
2026-04-26 22:02 12.27789 -61.99956 12016 ft 189 kts 324°
2026-04-26 22:02 12.28485 -62.00496 12016 ft 189 kts 324°
2026-04-26 22:02 12.29883 -62.01584 12016 ft 189 kts 324°
2026-04-26 22:02 12.30925 -62.02394 12015 ft 189 kts 324°
2026-04-26 22:03 12.31972 -62.03207 12016 ft 188 kts 324°
2026-04-26 22:03 12.33023 -62.04024 12016 ft 188 kts 323°
2026-04-26 22:03 12.34063 -62.04832 12018 ft 188 kts 324°
2026-04-26 22:03 12.35110 -62.05648 12019 ft 189 kts 323°
2026-04-26 22:04 12.36160 -62.06464 12018 ft 189 kts 323°
2026-04-26 22:04 12.37205 -62.07277 12019 ft 189 kts 323°
2026-04-26 22:04 12.38259 -62.08098 12017 ft 189 kts 323°
2026-04-26 22:04 12.39304 -62.08911 12018 ft 189 kts 324°
2026-04-26 22:05 12.40364 -62.09735 12016 ft 189 kts 324°
2026-04-26 22:05 12.41410 -62.10550 12013 ft 190 kts 324°
2026-04-26 22:05 12.42458 -62.11366 12009 ft 190 kts 324°
2026-04-26 22:05 12.43523 -62.12194 12008 ft 190 kts 323°
2026-04-26 22:06 12.44570 -62.13009 12009 ft 189 kts 323°
2026-04-26 22:06 12.45617 -62.13824 12011 ft 189 kts 324°
2026-04-26 22:06 12.46672 -62.14646 12014 ft 189 kts 323°
2026-04-26 22:06 12.47714 -62.15458 12015 ft 188 kts 323°
2026-04-26 22:07 12.48750 -62.16265 12017 ft 188 kts 324°
2026-04-26 22:07 12.49806 -62.17087 12017 ft 188 kts 324°
2026-04-26 22:07 12.50846 -62.17897 12016 ft 188 kts 324°
2026-04-26 22:07 12.51887 -62.18708 12018 ft 188 kts 324°
2026-04-26 22:08 12.52944 -62.19532 12016 ft 189 kts 324°
2026-04-26 22:08 12.53986 -62.20343 12017 ft 189 kts 323°
2026-04-26 22:08 12.55032 -62.21159 12017 ft 189 kts 323°
2026-04-26 22:08 12.56089 -62.21981 12018 ft 188 kts 323°
2026-04-26 22:09 12.57129 -62.22793 12018 ft 189 kts 323°
2026-04-26 22:09 12.58179 -62.23611 12019 ft 189 kts 323°
2026-04-26 22:09 12.59231 -62.24431 12021 ft 189 kts 323°
2026-04-26 22:09 12.60277 -62.25248 12021 ft 188 kts 323°
2026-04-26 22:10 12.61314 -62.26057 12019 ft 188 kts 323°
2026-04-26 22:10 12.62358 -62.26870 12017 ft 188 kts 323°
2026-04-26 22:10 12.63403 -62.27686 12016 ft 188 kts 323°
2026-04-26 22:10 12.64446 -62.28500 12018 ft 188 kts 323°
2026-04-26 22:11 12.65492 -62.29316 12020 ft 188 kts 323°
2026-04-26 22:11 12.66540 -62.30133 12020 ft 189 kts 323°
2026-04-26 22:11 12.67587 -62.30950 12021 ft 189 kts 323°
2026-04-26 22:11 12.68639 -62.31770 12022 ft 189 kts 323°
2026-04-26 22:12 12.69687 -62.32588 12020 ft 189 kts 323°
2026-04-26 22:12 12.70740 -62.33410 12020 ft 189 kts 323°
2026-04-26 22:12 12.71792 -62.34232 12018 ft 189 kts 323°
2026-04-26 22:12 12.72846 -62.35054 12014 ft 189 kts 323°
2026-04-26 22:13 12.73896 -62.35874 12012 ft 189 kts 323°
2026-04-26 22:13 12.74946 -62.36694 12012 ft 189 kts 323°
2026-04-26 22:13 12.75997 -62.37515 12011 ft 189 kts 323°
2026-04-26 22:13 12.77032 -62.38322 12012 ft 188 kts 323°
2026-04-26 22:14 12.78078 -62.39140 12012 ft 188 kts 323°
2026-04-26 22:14 12.79126 -62.39960 12012 ft 188 kts 323°
2026-04-26 22:14 12.80172 -62.40778 12012 ft 188 kts 323°
2026-04-26 22:14 12.81224 -62.41599 12011 ft 189 kts 323°
2026-04-26 22:15 12.82257 -62.42406 12012 ft 188 kts 323°
2026-04-26 22:15 12.83308 -62.43227 12012 ft 188 kts 323°
2026-04-26 22:15 12.84357 -62.44047 12011 ft 188 kts 323°
2026-04-26 22:15 12.85405 -62.44866 12011 ft 189 kts 323°
2026-04-26 22:16 12.86441 -62.45676 12013 ft 188 kts 323°
2026-04-26 22:16 12.87487 -62.46495 12012 ft 188 kts 323°
2026-04-26 22:16 12.88536 -62.47314 12013 ft 188 kts 323°
2026-04-26 22:16 12.89583 -62.48133 12011 ft 188 kts 323°
2026-04-26 22:17 12.90609 -62.48936 12011 ft 188 kts 323°
2026-04-26 22:17 12.91655 -62.49755 12013 ft 188 kts 323°
2026-04-26 22:17 12.92699 -62.50573 12013 ft 188 kts 323°
2026-04-26 22:17 12.93732 -62.51380 12011 ft 188 kts 323°
2026-04-26 22:18 12.94779 -62.52198 12012 ft 188 kts 323°
2026-04-26 22:18 12.95826 -62.53017 12012 ft 188 kts 323°
2026-04-26 22:18 12.96875 -62.53838 12012 ft 188 kts 323°
2026-04-26 22:18 12.97911 -62.54648 12014 ft 188 kts 323°
2026-04-26 22:19 12.98963 -62.55471 12013 ft 188 kts 323°
2026-04-26 22:19 13.00000 -62.56285 12014 ft 188 kts 323°
2026-04-26 22:19 13.01051 -62.57107 12013 ft 188 kts 323°
2026-04-26 22:19 13.02091 -62.57922 12013 ft 188 kts 323°
2026-04-26 22:20 13.03140 -62.58744 12013 ft 188 kts 323°
2026-04-26 22:20 13.03838 -62.59290 12014 ft 188 kts 323°
2026-04-26 22:20 13.05226 -62.60379 12019 ft 188 kts 323°
2026-04-26 22:20 13.06266 -62.61194 12022 ft 188 kts 323°
2026-04-26 22:21 13.07305 -62.62007 12023 ft 188 kts 323°
2026-04-26 22:21 13.08343 -62.62820 12023 ft 188 kts 323°
2026-04-26 22:21 13.09387 -62.63638 12024 ft 188 kts 323°
2026-04-26 22:21 13.10438 -62.64460 12024 ft 188 kts 323°
2026-04-26 22:22 13.11473 -62.65271 12021 ft 188 kts 322°
2026-04-26 22:22 13.12523 -62.66093 12014 ft 188 kts 322°
2026-04-26 22:22 13.13561 -62.66909 12012 ft 187 kts 322°
2026-04-26 22:22 13.14595 -62.67719 12010 ft 187 kts 322°
2026-04-26 22:23 13.15636 -62.68536 12010 ft 187 kts 322°
2026-04-26 22:23 13.16665 -62.69343 12010 ft 187 kts 322°
2026-04-26 22:23 13.17708 -62.70161 12010 ft 187 kts 322°
2026-04-26 22:23 13.18749 -62.70978 12011 ft 187 kts 322°
2026-04-26 22:24 13.19776 -62.71785 12014 ft 187 kts 322°
2026-04-26 22:24 13.20815 -62.72600 12015 ft 186 kts 322°
2026-04-26 22:24 13.21851 -62.73414 12014 ft 186 kts 322°
2026-04-26 22:24 13.22877 -62.74220 12013 ft 186 kts 322°
2026-04-26 22:25 13.23912 -62.75032 12012 ft 187 kts 322°
2026-04-26 22:25 13.24943 -62.75840 12015 ft 187 kts 322°
2026-04-26 22:25 13.25986 -62.76659 12016 ft 186 kts 322°
2026-04-26 22:25 13.27018 -62.77468 12017 ft 186 kts 322°
2026-04-26 22:26 13.28054 -62.78280 12017 ft 186 kts 322°
2026-04-26 22:26 13.29085 -62.79090 12017 ft 186 kts 322°
2026-04-26 22:26 13.30115 -62.79900 12019 ft 186 kts 322°
2026-04-26 22:26 13.31147 -62.80710 12019 ft 186 kts 322°
2026-04-26 22:27 13.32176 -62.81520 12020 ft 186 kts 322°
2026-04-26 22:27 13.33210 -62.82333 12019 ft 187 kts 322°
2026-04-26 22:27 13.34242 -62.83143 12017 ft 187 kts 322°
2026-04-26 22:27 13.35278 -62.83958 12015 ft 187 kts 322°
2026-04-26 22:28 13.36307 -62.84767 12018 ft 187 kts 322°
2026-04-26 22:28 13.37352 -62.85589 12020 ft 187 kts 322°
2026-04-26 22:28 13.38382 -62.86397 12020 ft 187 kts 322°
2026-04-26 22:28 13.39423 -62.87214 12019 ft 187 kts 322°
2026-04-26 22:29 13.40452 -62.88023 12019 ft 187 kts 322°
2026-04-26 22:29 13.41494 -62.88843 12017 ft 187 kts 322°
2026-04-26 22:29 13.42520 -62.89650 12017 ft 187 kts 322°
2026-04-26 22:29 13.43550 -62.90460 12020 ft 186 kts 322°
2026-04-26 22:30 13.44589 -62.91278 12020 ft 186 kts 322°
2026-04-26 22:30 13.45618 -62.92087 12024 ft 186 kts 322°
2026-04-26 22:30 13.46644 -62.92895 12026 ft 187 kts 322°
2026-04-26 22:30 13.47675 -62.93706 12028 ft 186 kts 322°
2026-04-26 22:31 13.48719 -62.94528 12029 ft 186 kts 322°
2026-04-26 22:31 13.49748 -62.95338 12029 ft 186 kts 322°
2026-04-26 22:31 13.50768 -62.96140 12030 ft 186 kts 322°
2026-04-26 22:31 13.51800 -62.96953 12031 ft 186 kts 322°
2026-04-26 22:32 13.52835 -62.97767 12030 ft 186 kts 322°
2026-04-26 22:32 13.53872 -62.98584 12032 ft 186 kts 322°
2026-04-26 22:32 13.54890 -62.99385 12031 ft 186 kts 321°
2026-04-26 22:32 13.55924 -63.00200 12031 ft 186 kts 322°
2026-04-26 22:33 13.56956 -63.01014 12030 ft 186 kts 322°
2026-04-26 22:33 13.59031 -63.02647 12033 ft 186 kts 322°
2026-04-26 22:33 13.60056 -63.03455 12031 ft 186 kts 322°
2026-04-26 22:34 13.61083 -63.04265 12032 ft 186 kts 322°
2026-04-26 22:34 13.62106 -63.05071 12029 ft 186 kts 322°
2026-04-26 22:34 13.63148 -63.05893 12031 ft 186 kts 322°
2026-04-26 22:34 13.64176 -63.06704 12031 ft 186 kts 322°
2026-04-26 22:35 13.65204 -63.07515 12032 ft 186 kts 322°
2026-04-26 22:35 13.66226 -63.08320 12031 ft 186 kts 322°
2026-04-26 22:35 13.67258 -63.09133 12031 ft 186 kts 322°
2026-04-26 22:35 13.68278 -63.09936 12029 ft 186 kts 322°
2026-04-26 22:36 13.69311 -63.10751 12032 ft 186 kts 322°
2026-04-26 22:36 13.70344 -63.11565 12030 ft 186 kts 322°
2026-04-26 22:36 13.71376 -63.12380 12029 ft 186 kts 322°
2026-04-26 22:36 13.72405 -63.13194 12027 ft 186 kts 322°
2026-04-26 22:37 13.73434 -63.14006 12026 ft 186 kts 322°
2026-04-26 22:37 13.74464 -63.14818 12027 ft 186 kts 322°
2026-04-26 22:37 13.75491 -63.15629 12024 ft 186 kts 322°
2026-04-26 22:37 13.76520 -63.16442 12023 ft 186 kts 322°
2026-04-26 22:38 13.77554 -63.17257 12024 ft 187 kts 322°
2026-04-26 22:38 13.78584 -63.18070 12026 ft 186 kts 322°
2026-04-26 22:38 13.79610 -63.18879 12027 ft 186 kts 322°
2026-04-26 22:38 13.80639 -63.19691 12030 ft 186 kts 322°
2026-04-26 22:39 13.81675 -63.20510 12026 ft 186 kts 322°
2026-04-26 22:39 13.82699 -63.21319 12027 ft 186 kts 321°
2026-04-26 22:39 13.83724 -63.22128 12027 ft 186 kts 322°
2026-04-26 22:39 13.84747 -63.22938 12025 ft 185 kts 321°
2026-04-26 22:40 13.85784 -63.23756 12028 ft 185 kts 322°
2026-04-26 22:40 13.86796 -63.24558 12028 ft 185 kts 322°
2026-04-26 22:40 13.87818 -63.25366 12029 ft 185 kts 322°
2026-04-26 22:40 13.88843 -63.26177 12025 ft 185 kts 322°
2026-04-26 22:41 13.89877 -63.26994 12029 ft 185 kts 322°
2026-04-26 22:41 13.90899 -63.27801 12025 ft 185 kts 322°
2026-04-26 22:41 13.91933 -63.28616 12026 ft 185 kts 322°
2026-04-26 22:41 13.92949 -63.29420 12025 ft 185 kts 322°
2026-04-26 22:42 13.93971 -63.30228 12023 ft 185 kts 322°
2026-04-26 22:42 13.94999 -63.31042 12025 ft 185 kts 322°
2026-04-26 22:42 13.96023 -63.31852 12024 ft 185 kts 322°
2026-04-26 22:42 13.97044 -63.32662 12025 ft 185 kts 321°
2026-04-26 22:43 13.98066 -63.33471 12024 ft 185 kts 322°
2026-04-26 22:43 13.99086 -63.34277 12023 ft 184 kts 322°
2026-04-26 22:43 14.00110 -63.35088 12024 ft 184 kts 322°
2026-04-26 22:43 14.01134 -63.35899 12025 ft 185 kts 322°
2026-04-26 22:44 14.02153 -63.36704 12024 ft 184 kts 322°
2026-04-26 22:44 14.03163 -63.37505 12023 ft 184 kts 322°
2026-04-26 22:44 14.04196 -63.38322 12024 ft 184 kts 322°
2026-04-26 22:44 14.05210 -63.39125 12022 ft 184 kts 322°
2026-04-26 22:45 14.06228 -63.39931 12026 ft 184 kts 322°
2026-04-26 22:45 14.07237 -63.40729 12025 ft 184 kts 322°
2026-04-26 22:45 14.08263 -63.41540 12025 ft 184 kts 322°
2026-04-26 22:45 14.09282 -63.42348 12019 ft 184 kts 322°
2026-04-26 22:46 14.10306 -63.43160 12015 ft 184 kts 321°
2026-04-26 22:46 14.11320 -63.43964 12015 ft 184 kts 321°
2026-04-26 22:46 14.12345 -63.44778 12019 ft 183 kts 322°
2026-04-26 22:46 14.13356 -63.45580 12022 ft 183 kts 322°
2026-04-26 22:47 14.14359 -63.46378 12024 ft 183 kts 322°
2026-04-26 22:47 14.15371 -63.47180 12025 ft 183 kts 322°
2026-04-26 22:47 14.16378 -63.47977 12026 ft 182 kts 322°
2026-04-26 22:47 14.17396 -63.48782 12025 ft 183 kts 322°
2026-04-26 22:48 14.18412 -63.49588 12027 ft 183 kts 322°
2026-04-26 22:48 14.19413 -63.50382 12027 ft 183 kts 322°
2026-04-26 22:48 14.20437 -63.51195 12026 ft 183 kts 322°
2026-04-26 22:48 14.21439 -63.51988 12027 ft 183 kts 322°
2026-04-26 22:49 14.22452 -63.52792 12028 ft 182 kts 322°
2026-04-26 22:49 14.23460 -63.53592 12026 ft 182 kts 322°
2026-04-26 22:49 14.24468 -63.54392 12028 ft 182 kts 322°
2026-04-26 22:49 14.25463 -63.55181 12027 ft 182 kts 322°
2026-04-26 22:50 14.26467 -63.55978 12027 ft 182 kts 322°
2026-04-26 22:50 14.27469 -63.56775 12030 ft 181 kts 322°
2026-04-26 22:50 14.28477 -63.57575 12034 ft 181 kts 322°
2026-04-26 22:50 14.29480 -63.58373 12034 ft 182 kts 322°
2026-04-26 22:51 14.30483 -63.59169 12038 ft 181 kts 322°
2026-04-26 22:51 14.31488 -63.59967 12035 ft 182 kts 322°
2026-04-26 22:51 14.32487 -63.60759 12037 ft 182 kts 322°
2026-04-26 22:51 14.33494 -63.61560 12034 ft 182 kts 322°
2026-04-26 22:52 14.34491 -63.62351 12035 ft 181 kts 322°
2026-04-26 22:52 14.35499 -63.63152 12036 ft 181 kts 321°
2026-04-26 22:52 14.36503 -63.63951 12034 ft 181 kts 321°
2026-04-26 22:52 14.37496 -63.64741 12033 ft 181 kts 322°
2026-04-26 22:53 14.38497 -63.65536 12033 ft 181 kts 321°
2026-04-26 22:53 14.39506 -63.66337 12033 ft 181 kts 321°
2026-04-26 22:53 14.40493 -63.67123 12032 ft 181 kts 321°
2026-04-26 22:53 14.41486 -63.67913 12033 ft 180 kts 321°
2026-04-26 22:54 14.42497 -63.68716 12033 ft 180 kts 321°
2026-04-26 22:54 14.43483 -63.69502 12034 ft 180 kts 321°
2026-04-26 22:54 14.44480 -63.70294 12033 ft 180 kts 321°
2026-04-26 22:54 14.45477 -63.71088 12032 ft 180 kts 321°
2026-04-26 22:55 14.46474 -63.71880 12033 ft 180 kts 321°
2026-04-26 22:55 14.47475 -63.72677 12034 ft 180 kts 321°